Time,TemperatureF,DewpointF,PressureIn,WindDirection,WindDirectionDegrees,WindSpeedMPH,WindSpeedGustMPH,Humidity,HourlyPrecipIn,Conditions,Clouds,dailyrainin,SolarRadiationWatts/m^2,SoftwareType,DateUTC
2013-07-12 00:21:00,60.0,49.0,-100.00,ESE,102,1.0,5.0,68,0.00,,,0.00,6.000000,,2013-07-12 08:21:00,
2013-07-12 00:32:00,60.0,49.0,-100.00,ESE,102,1.0,5.0,68,0.00,,,0.00,6.000000,,2013-07-12 08:32:00,
2013-07-12 00:42:00,60.0,49.0,-100.00,ESE,102,1.0,5.0,68,0.00,,,0.00,6.000000,,2013-07-12 08:42:00,
2013-07-12 00:53:00,60.0,49.0,-100.00,ESE,102,1.0,5.0,68,0.00,,,0.00,6.000000,,2013-07-12 08:53:00,
2013-07-12 01:22:00,61.0,49.0,-100.00,SSE,166,3.0,5.0,65,0.00,,,0.00,0.000000,,2013-07-12 09:22:00,
2013-07-12 01:32:00,61.0,49.0,-100.00,SSE,166,3.0,5.0,65,0.00,,,0.00,0.000000,,2013-07-12 09:32:00,
2013-07-12 01:42:00,61.0,49.0,-100.00,SSE,166,3.0,5.0,65,0.00,,,0.00,0.000000,,2013-07-12 09:42:00,
2013-07-12 01:52:00,61.0,49.0,-100.00,SSE,166,3.0,5.0,65,0.00,,,0.00,0.000000,,2013-07-12 09:52:00,
2013-07-12 02:22:00,61.0,48.0,-100.00,SSE,156,2.0,5.0,63,0.00,,,0.00,0.000000,,2013-07-12 10:22:00,
2013-07-12 02:33:00,61.0,48.0,-100.00,SSE,156,2.0,5.0,63,0.00,,,0.00,0.000000,,2013-07-12 10:33:00,
2013-07-12 02:42:00,61.0,48.0,-100.00,SSE,156,2.0,5.0,63,0.00,,,0.00,0.000000,,2013-07-12 10:42:00,
2013-07-12 02:52:00,61.0,48.0,-100.00,SSE,156,2.0,5.0,63,0.00,,,0.00,0.000000,,2013-07-12 10:52:00,
2013-07-12 03:22:00,60.0,49.0,-100.00,NE,42,2.0,4.0,66,0.00,,,0.00,0.000000,,2013-07-12 11:22:00,
2013-07-12 03:32:00,60.0,49.0,-100.00,NE,42,2.0,4.0,66,0.00,,,0.00,0.000000,,2013-07-12 11:32:00,
2013-07-12 03:43:00,60.0,49.0,-100.00,NE,42,2.0,4.0,66,0.00,,,0.00,0.000000,,2013-07-12 11:43:00,
2013-07-12 03:52:00,60.0,49.0,-100.00,NE,42,2.0,4.0,66,0.00,,,0.00,0.000000,,2013-07-12 11:52:00,
2013-07-12 04:22:00,59.0,47.0,-100.00,SSE,163,4.0,6.0,64,0.00,,,0.00,0.000000,,2013-07-12 12:22:00,
2013-07-12 04:32:00,59.0,47.0,-100.00,SSE,163,4.0,6.0,64,0.00,,,0.00,0.000000,,2013-07-12 12:32:00,
2013-07-12 04:43:00,59.0,47.0,-100.00,SSE,163,4.0,6.0,64,0.00,,,0.00,0.000000,,2013-07-12 12:43:00,
2013-07-12 04:52:00,59.0,47.0,-100.00,SSE,163,4.0,6.0,64,0.00,,,0.00,0.000000,,2013-07-12 12:52:00,
2013-07-12 05:22:00,58.0,46.0,-100.00,South,173,3.0,6.0,65,0.00,,,0.00,2.000000,,2013-07-12 13:22:00,
2013-07-12 05:32:00,58.0,46.0,-100.00,South,173,3.0,6.0,65,0.00,,,0.00,2.000000,,2013-07-12 13:32:00,
2013-07-12 05:43:00,58.0,46.0,-100.00,South,173,3.0,6.0,65,0.00,,,0.00,2.000000,,2013-07-12 13:43:00,
2013-07-12 05:53:00,58.0,46.0,-100.00,South,173,3.0,6.0,65,0.00,,,0.00,2.000000,,2013-07-12 13:53:00,
2013-07-12 06:22:00,57.0,47.0,-100.00,South,173,2.0,5.0,70,0.00,,,0.00,11.000000,,2013-07-12 14:22:00,
2013-07-12 06:32:00,57.0,47.0,-100.00,South,173,2.0,5.0,70,0.00,,,0.00,11.000000,,2013-07-12 14:32:00,
2013-07-12 06:43:00,57.0,47.0,-100.00,South,173,2.0,5.0,70,0.00,,,0.00,11.000000,,2013-07-12 14:43:00,
2013-07-12 06:53:00,57.0,47.0,-100.00,South,173,2.0,5.0,70,0.00,,,0.00,11.000000,,2013-07-12 14:53:00,
2013-07-12 07:22:00,59.0,49.0,-100.00,SW,215,2.0,4.0,69,0.00,,,0.00,42.000000,,2013-07-12 15:22:00,
2013-07-12 07:33:00,59.0,49.0,-100.00,SW,215,2.0,4.0,69,0.00,,,0.00,42.000000,,2013-07-12 15:33:00,
2013-07-12 07:43:00,59.0,49.0,-100.00,SW,215,2.0,4.0,69,0.00,,,0.00,42.000000,,2013-07-12 15:43:00,
2013-07-12 07:52:00,59.0,49.0,-100.00,SW,215,2.0,4.0,69,0.00,,,0.00,42.000000,,2013-07-12 15:52:00,
2013-07-12 08:54:00,64.0,49.0,-100.00,SSW,202,2.0,4.0,58,0.00,,,0.00,191.000000,,2013-07-12 16:54:00,
2013-07-12 09:34:00,65.0,50.0,-100.00,WSW,237,3.0,5.0,59,0.00,,,0.00,321.000000,,2013-07-12 17:34:00,
2013-07-12 09:44:00,65.0,50.0,-100.00,WSW,237,3.0,5.0,59,0.00,,,0.00,321.000000,,2013-07-12 17:44:00,
2013-07-12 09:53:00,65.0,50.0,-100.00,WSW,237,3.0,5.0,59,0.00,,,0.00,321.000000,,2013-07-12 17:53:00,
2013-07-12 10:34:00,67.0,50.0,-100.00,NW,318,3.0,5.0,54,0.00,,,0.00,465.000000,,2013-07-12 18:34:00,
2013-07-12 10:53:00,67.0,50.0,-100.00,NW,318,3.0,5.0,54,0.00,,,0.00,465.000000,,2013-07-12 18:53:00,
2013-07-12 11:44:00,69.0,52.0,-100.00,West,274,3.0,6.0,55,0.00,,,0.00,582.000000,,2013-07-12 19:44:00,
2013-07-12 11:53:00,69.0,52.0,-100.00,West,274,3.0,6.0,55,0.00,,,0.00,582.000000,,2013-07-12 19:53:00,
2013-07-12 12:33:00,70.0,50.0,-100.00,West,262,4.0,7.0,49,0.00,,,0.00,682.000000,,2013-07-12 20:33:00,
2013-07-12 12:43:00,70.0,50.0,-100.00,West,262,4.0,7.0,49,0.00,,,0.00,682.000000,,2013-07-12 20:43:00,
2013-07-12 13:33:00,71.0,48.0,-100.00,WSW,239,4.0,7.0,44,0.00,,,0.00,736.000000,,2013-07-12 21:33:00,
2013-07-12 13:43:00,71.0,48.0,-100.00,WSW,239,4.0,7.0,44,0.00,,,0.00,736.000000,,2013-07-12 21:43:00,
2013-07-12 13:53:00,71.0,48.0,-100.00,WSW,239,4.0,7.0,44,0.00,,,0.00,736.000000,,2013-07-12 21:53:00,
2013-07-12 14:43:00,67.0,50.0,-100.00,WNW,294,2.0,6.0,54,0.00,,,0.00,290.000000,,2013-07-12 22:43:00,
2013-07-12 14:53:00,67.0,50.0,-100.00,WNW,294,2.0,6.0,54,0.00,,,0.00,290.000000,,2013-07-12 22:53:00,
2013-07-12 15:33:00,74.0,51.0,-100.00,WNW,287,4.0,7.0,45,0.00,,,0.00,727.000000,,2013-07-12 23:33:00,
2013-07-12 15:42:00,74.0,51.0,-100.00,WNW,287,4.0,7.0,45,0.00,,,0.00,727.000000,,2013-07-12 23:42:00,
2013-07-12 15:53:00,74.0,51.0,-100.00,WNW,287,4.0,7.0,45,0.00,,,0.00,727.000000,,2013-07-12 23:53:00,
2013-07-12 16:45:00,72.0,51.0,-100.00,NNW,339,3.0,8.0,47,0.00,,,0.00,551.000000,,2013-07-13 00:45:00,
2013-07-12 16:53:00,72.0,51.0,-100.00,NNW,339,3.0,8.0,47,0.00,,,0.00,551.000000,,2013-07-13 00:53:00,
2013-07-12 17:53:00,76.0,52.0,-100.00,NW,317,3.0,7.0,44,0.00,,,0.00,520.000000,,2013-07-13 01:53:00,
2013-07-12 18:22:00,76.0,58.0,-100.00,WNW,284,4.0,10.0,54,0.00,,,0.00,578.000000,,2013-07-13 02:22:00,
2013-07-12 18:35:00,76.0,58.0,-100.00,WNW,284,4.0,10.0,54,0.00,,,0.00,578.000000,,2013-07-13 02:35:00,
2013-07-12 18:44:00,76.0,58.0,-100.00,WNW,284,4.0,10.0,54,0.00,,,0.00,578.000000,,2013-07-13 02:44:00,
2013-07-12 18:53:00,76.0,58.0,-100.00,WNW,284,4.0,10.0,54,0.00,,,0.00,578.000000,,2013-07-13 02:53:00,
2013-07-12 19:24:00,71.0,55.0,-100.00,NW,321,3.0,6.0,58,0.00,,,0.00,267.000000,,2013-07-13 03:24:00,
2013-07-12 19:34:00,71.0,55.0,-100.00,NW,321,3.0,6.0,58,0.00,,,0.00,267.000000,,2013-07-13 03:34:00,
2013-07-12 19:44:00,71.0,55.0,-100.00,NW,321,3.0,6.0,58,0.00,,,0.00,267.000000,,2013-07-13 03:44:00,
2013-07-12 19:54:00,71.0,55.0,-100.00,NW,321,3.0,6.0,58,0.00,,,0.00,267.000000,,2013-07-13 03:54:00,
2013-07-12 20:22:00,74.0,57.0,-100.00,WSW,239,3.0,6.0,55,0.00,,,0.00,273.000000,,2013-07-13 04:22:00,
2013-07-12 20:32:00,74.0,57.0,-100.00,WSW,239,3.0,6.0,55,0.00,,,0.00,273.000000,,2013-07-13 04:32:00,
2013-07-12 20:43:00,74.0,57.0,-100.00,WSW,239,3.0,6.0,55,0.00,,,0.00,273.000000,,2013-07-13 04:43:00,
2013-07-12 20:52:00,74.0,57.0,-100.00,WSW,239,3.0,6.0,55,0.00,,,0.00,273.000000,,2013-07-13 04:52:00,
2013-07-12 21:42:00,69.0,52.0,-100.00,SW,214,4.0,6.0,55,0.00,,,0.00,258.000000,,2013-07-13 05:42:00,
2013-07-12 21:52:00,69.0,52.0,-100.00,SW,214,4.0,6.0,55,0.00,,,0.00,258.000000,,2013-07-13 05:52:00,
2013-07-12 22:43:00,69.0,48.0,-100.00,WSW,246,2.0,5.0,47,0.00,,,0.00,146.000000,,2013-07-13 06:43:00,
2013-07-12 22:52:00,69.0,48.0,-100.00,WSW,246,2.0,5.0,47,0.00,,,0.00,146.000000,,2013-07-13 06:52:00,
2013-07-12 23:22:00,63.0,49.0,-100.00,South,181,7.0,14.0,60,0.00,,,0.00,32.000000,,2013-07-13 07:22:00,
2013-07-12 23:33:00,63.0,49.0,-100.00,South,181,7.0,14.0,60,0.00,,,0.00,32.000000,,2013-07-13 07:33:00,
2013-07-12 23:44:00,63.0,49.0,-100.00,South,181,7.0,14.0,60,0.00,,,0.00,32.000000,,2013-07-13 07:44:00,
2013-07-12 23:53:00,63.0,49.0,-100.00,South,181,7.0,14.0,60,0.00,,,0.00,32.000000,,2013-07-13 07:53:00,